Time,TemperatureF,DewpointF,PressureIn,WindDirection,WindDirectionDegrees,WindSpeedMPH,WindSpeedGustMPH,Humidity,HourlyPrecipIn,Conditions,Clouds,dailyrainin,SolarRadiationWatts/m^2,SoftwareType,DateUTC
2013-09-24 00:00:00,39.0,38.0,-100.00,ESE,112,0.0,-999.0,96,-99.99,,,-99.99,0.000000,,2013-09-24 04:00:00,
2013-09-24 00:44:00,39.0,38.0,-100.00,ESE,112,0.0,-999.0,96,-99.99,,,-99.99,0.000000,,2013-09-24 04:44:00,
2013-09-24 00:54:00,39.0,38.0,-100.00,ESE,112,0.0,-999.0,96,-99.99,,,-99.99,0.000000,,2013-09-24 04:54:00,
2013-09-24 01:00:00,38.0,37.0,-100.00,ESE,112,0.0,-999.0,97,-99.99,,,-99.99,0.000000,,2013-09-24 05:00:00,
2013-09-24 01:43:00,38.0,37.0,-100.00,ESE,112,0.0,-999.0,97,-99.99,,,-99.99,0.000000,,2013-09-24 05:43:00,
2013-09-24 01:53:00,38.0,37.0,-100.00,ESE,112,0.0,-999.0,97,-99.99,,,-99.99,0.000000,,2013-09-24 05:53:00,
2013-09-24 02:00:00,37.0,36.0,-100.00,East,90,0.0,-999.0,97,-99.99,,,-99.99,0.000000,,2013-09-24 06:00:00,
2013-09-24 02:42:00,37.0,36.0,-100.00,East,90,0.0,-999.0,97,-99.99,,,-99.99,0.000000,,2013-09-24 06:42:00,
2013-09-24 02:52:00,37.0,36.0,-100.00,East,90,0.0,-999.0,97,-99.99,,,-99.99,0.000000,,2013-09-24 06:52:00,
2013-09-24 03:00:00,36.0,35.0,-100.00,North,0,0.0,-999.0,97,-99.99,,,-99.99,0.000000,,2013-09-24 07:00:00,
2013-09-24 03:43:00,36.0,35.0,-100.00,North,0,0.0,-999.0,97,-99.99,,,-99.99,0.000000,,2013-09-24 07:43:00,
2013-09-24 03:52:00,36.0,35.0,-100.00,North,0,0.0,-999.0,97,-99.99,,,-99.99,0.000000,,2013-09-24 07:52:00,
2013-09-24 04:00:00,36.0,35.0,-100.00,ESE,112,0.0,-999.0,97,-99.99,,,-99.99,0.000000,,2013-09-24 08:00:00,
2013-09-24 04:42:00,36.0,35.0,-100.00,ESE,112,0.0,-999.0,97,-99.99,,,-99.99,0.000000,,2013-09-24 08:42:00,
2013-09-24 04:52:00,36.0,35.0,-100.00,ESE,112,0.0,-999.0,97,-99.99,,,-99.99,0.000000,,2013-09-24 08:52:00,
2013-09-24 05:00:00,35.0,34.0,-100.00,NNW,337,0.0,-999.0,97,-99.99,,,-99.99,0.000000,,2013-09-24 09:00:00,
2013-09-24 05:43:00,35.0,34.0,-100.00,NNW,337,0.0,-999.0,97,-99.99,,,-99.99,0.000000,,2013-09-24 09:43:00,
2013-09-24 05:54:00,35.0,34.0,-100.00,NNW,337,0.0,-999.0,97,-99.99,,,-99.99,0.000000,,2013-09-24 09:54:00,
2013-09-24 06:00:00,34.0,34.0,-100.00,WNW,292,1.0,-999.0,97,-99.99,,,-99.99,0.000000,,2013-09-24 10:00:00,
2013-09-24 06:42:00,34.0,34.0,-100.00,WNW,292,1.0,-999.0,97,-99.99,,,-99.99,0.000000,,2013-09-24 10:42:00,
2013-09-24 06:53:00,34.0,34.0,-100.00,WNW,292,1.0,-999.0,97,-99.99,,,-99.99,0.000000,,2013-09-24 10:53:00,
2013-09-24 07:00:00,34.0,34.0,-100.00,NW,315,1.0,-999.0,97,-99.99,,,-99.99,0.000000,,2013-09-24 11:00:00,
2013-09-24 07:42:00,34.0,34.0,-100.00,NW,315,1.0,-999.0,97,-99.99,,,-99.99,0.000000,,2013-09-24 11:42:00,
2013-09-24 07:52:00,34.0,34.0,-100.00,NW,315,1.0,-999.0,97,-99.99,,,-99.99,0.000000,,2013-09-24 11:52:00,
2013-09-24 08:00:00,35.0,34.0,-100.00,SW,225,1.0,-999.0,97,-99.99,,,-99.99,4.640000,,2013-09-24 12:00:00,
2013-09-24 08:42:00,35.0,34.0,-100.00,SW,225,1.0,-999.0,97,-99.99,,,-99.99,4.640000,,2013-09-24 12:42:00,
2013-09-24 08:52:00,35.0,34.0,-100.00,SW,225,1.0,-999.0,97,-99.99,,,-99.99,4.640000,,2013-09-24 12:52:00,
2013-09-24 09:00:00,38.0,38.0,-100.00,SE,135,1.0,-999.0,97,-99.99,,,-99.99,51.040001,,2013-09-24 13:00:00,
2013-09-24 09:42:00,38.0,38.0,-100.00,SE,135,1.0,-999.0,97,-99.99,,,-99.99,51.040001,,2013-09-24 13:42:00,
2013-09-24 09:52:00,38.0,38.0,-100.00,SE,135,1.0,-999.0,97,-99.99,,,-99.99,51.040001,,2013-09-24 13:52:00,
2013-09-24 10:00:00,45.0,44.0,-100.00,East,90,1.0,-999.0,98,-99.99,,,-99.99,118.320000,,2013-09-24 14:00:00,
2013-09-24 10:42:00,45.0,44.0,-100.00,East,90,1.0,-999.0,98,-99.99,,,-99.99,118.320000,,2013-09-24 14:42:00,
2013-09-24 10:52:00,45.0,44.0,-100.00,East,90,1.0,-999.0,98,-99.99,,,-99.99,118.320000,,2013-09-24 14:52:00,
2013-09-24 11:00:00,50.0,49.0,-100.00,SE,135,1.0,-999.0,98,-99.99,,,-99.99,205.320007,,2013-09-24 15:00:00,
2013-09-24 11:43:00,50.0,49.0,-100.00,SE,135,1.0,-999.0,98,-99.99,,,-99.99,205.320007,,2013-09-24 15:43:00,
2013-09-24 11:54:00,50.0,49.0,-100.00,SE,135,1.0,-999.0,98,-99.99,,,-99.99,205.320007,,2013-09-24 15:54:00,
2013-09-24 12:00:00,58.0,54.0,-100.00,SSE,157,3.0,-999.0,86,-99.99,,,-99.99,497.640015,,2013-09-24 16:00:00,
2013-09-24 12:43:00,58.0,54.0,-100.00,SSE,157,3.0,-999.0,86,-99.99,,,-99.99,497.640015,,2013-09-24 16:43:00,
2013-09-24 12:53:00,58.0,54.0,-100.00,SSE,157,3.0,-999.0,86,-99.99,,,-99.99,497.640015,,2013-09-24 16:53:00,
2013-09-24 13:00:00,61.0,53.0,-100.00,SSE,157,5.0,-999.0,74,-99.99,,,-99.99,388.600006,,2013-09-24 17:00:00,
2013-09-24 13:43:00,61.0,53.0,-100.00,SSE,157,5.0,-999.0,74,-99.99,,,-99.99,388.600006,,2013-09-24 17:43:00,
2013-09-24 13:54:00,61.0,53.0,-100.00,SSE,157,5.0,-999.0,74,-99.99,,,-99.99,388.600006,,2013-09-24 17:54:00,
2013-09-24 14:00:00,62.0,53.0,-100.00,SSE,157,5.0,-999.0,73,-99.99,,,-99.99,361.920013,,2013-09-24 18:00:00,
2013-09-24 14:42:00,62.0,53.0,-100.00,SSE,157,5.0,-999.0,73,-99.99,,,-99.99,361.920013,,2013-09-24 18:42:00,
2013-09-24 14:52:00,62.0,53.0,-100.00,SSE,157,5.0,-999.0,73,-99.99,,,-99.99,361.920013,,2013-09-24 18:52:00,
2013-09-24 15:00:00,62.0,53.0,-100.00,South,180,4.0,-999.0,72,-99.99,,,-99.99,406.000000,,2013-09-24 19:00:00,
2013-09-24 15:42:00,62.0,53.0,-100.00,South,180,4.0,-999.0,72,-99.99,,,-99.99,406.000000,,2013-09-24 19:42:00,
2013-09-24 15:52:00,62.0,53.0,-100.00,South,180,4.0,-999.0,72,-99.99,,,-99.99,406.000000,,2013-09-24 19:52:00,
2013-09-24 16:00:00,62.0,53.0,-100.00,ESE,112,7.0,-999.0,72,-99.99,,,-99.99,451.239990,,2013-09-24 20:00:00,
2013-09-24 16:42:00,62.0,53.0,-100.00,ESE,112,7.0,-999.0,72,-99.99,,,-99.99,451.239990,,2013-09-24 20:42:00,
2013-09-24 16:52:00,62.0,53.0,-100.00,ESE,112,7.0,-999.0,72,-99.99,,,-99.99,451.239990,,2013-09-24 20:52:00,
2013-09-24 17:00:00,61.0,52.0,-100.00,SE,135,7.0,-999.0,72,-99.99,,,-99.99,274.920013,,2013-09-24 21:00:00,
2013-09-24 17:44:00,61.0,52.0,-100.00,SE,135,7.0,-999.0,72,-99.99,,,-99.99,274.920013,,2013-09-24 21:44:00,
2013-09-24 17:54:00,61.0,52.0,-100.00,SE,135,7.0,-999.0,72,-99.99,,,-99.99,274.920013,,2013-09-24 21:54:00,
2013-09-24 18:00:00,61.0,52.0,-100.00,SE,135,5.0,-999.0,74,-99.99,,,-99.99,214.600006,,2013-09-24 22:00:00,
2013-09-24 18:43:00,61.0,52.0,-100.00,SE,135,5.0,-999.0,74,-99.99,,,-99.99,214.600006,,2013-09-24 22:43:00,
2013-09-24 18:54:00,61.0,52.0,-100.00,SE,135,5.0,-999.0,74,-99.99,,,-99.99,214.600006,,2013-09-24 22:54:00,
2013-09-24 19:00:00,59.0,52.0,-100.00,SSE,157,4.0,-999.0,77,-99.99,,,-99.99,109.040001,,2013-09-24 23:00:00,
2013-09-24 19:43:00,59.0,52.0,-100.00,SSE,157,4.0,-999.0,77,-99.99,,,-99.99,109.040001,,2013-09-24 23:43:00,
2013-09-24 19:53:00,59.0,52.0,-100.00,SSE,157,4.0,-999.0,77,-99.99,,,-99.99,109.040001,,2013-09-24 23:53:00,
2013-09-24 20:00:00,56.0,50.0,-100.00,SE,135,1.0,-999.0,82,-99.99,,,-99.99,17.400000,,2013-09-25 00:00:00,
2013-09-24 20:42:00,56.0,50.0,-100.00,SE,135,1.0,-999.0,82,-99.99,,,-99.99,17.400000,,2013-09-25 00:42:00,
2013-09-24 20:52:00,56.0,50.0,-100.00,SE,135,1.0,-999.0,82,-99.99,,,-99.99,17.400000,,2013-09-25 00:52:00,
2013-09-24 21:00:00,50.0,48.0,-100.00,ESE,112,0.0,-999.0,93,-99.99,,,-99.99,0.000000,,2013-09-25 01:00:00,
2013-09-24 21:42:00,50.0,48.0,-100.00,ESE,112,0.0,-999.0,93,-99.99,,,-99.99,0.000000,,2013-09-25 01:42:00,
2013-09-24 21:52:00,50.0,48.0,-100.00,ESE,112,0.0,-999.0,93,-99.99,,,-99.99,0.000000,,2013-09-25 01:52:00,
2013-09-24 22:00:00,46.0,45.0,-100.00,North,0,0.0,-999.0,95,-99.99,,,-99.99,0.000000,,2013-09-25 02:00:00,
2013-09-24 22:42:00,46.0,45.0,-100.00,North,0,0.0,-999.0,95,-99.99,,,-99.99,0.000000,,2013-09-25 02:42:00,
2013-09-24 22:52:00,46.0,45.0,-100.00,North,0,0.0,-999.0,95,-99.99,,,-99.99,0.000000,,2013-09-25 02:52:00,
2013-09-24 23:00:00,43.0,42.0,-100.00,North,0,0.0,-999.0,96,-99.99,,,-99.99,0.000000,,2013-09-25 03:00:00,
2013-09-24 23:45:00,43.0,42.0,-100.00,North,0,0.0,-999.0,96,-99.99,,,-99.99,0.000000,,2013-09-25 03:45:00,
2013-09-24 23:55:00,43.0,42.0,-100.00,North,0,0.0,-999.0,96,-99.99,,,-99.99,0.000000,,2013-09-25 03:55:00,